EW9652 Weather Reports


Display with metric or nautical units.
time (UTC)temp
F
wind
direction
speed
MPH
gust
MPH
rain 1hr
in
rain 24hr
in
rain mn
in
humidity
%
barometer
mb
20260502193556 69 179 5.0 12.0 0.00 0.00 0.00 23 1024.6
20260502193055 68 224 4.0 12.0 0.00 0.00 0.00 24 1024.7
20260502192556 68 250 3.0 9.0 0.00 0.00 0.00 25 1024.8
20260502192326 68 143 3.0 8.0 0.00 0.00 0.00 25 1024.9
20260502191555 68 180 3.0 10.0 0.00 0.00 0.00 26 1024.9
20260502191056 67 38 3.0 11.0 0.00 0.00 0.00 26 1025.1
20260502190556 68 296 3.0 11.0 0.00 0.00 0.00 26 1025.0
20260502190056 68 178 3.0 7.0 0.00 0.00 0.00 26 1025.1
20260502185555 67 250 2.0 10.0 0.00 0.00 0.00 26 1025.1
20260502185055 67 219 3.0 10.0 0.00 0.00 0.00 27 1025.2
20260502184556 68 273 4.0 9.0 0.00 0.00 0.00 27 1025.2
20260502184059 67 142 3.0 9.0 0.00 0.00 0.00 28 1025.4
20260502184055 67 189 4.0 9.0 0.00 0.00 0.00 27 1025.3
20260502183055 67 194 2.0 6.0 0.00 0.00 0.00 28 1025.4
20260502182557 67 1 1.0 5.0 0.00 0.00 0.00 28 1025.5
20260502182324 66 61 2.0 7.0 0.00 0.00 0.00 30 1025.5
20260502181553 65 62 4.0 9.0 0.00 0.00 0.00 30 1025.6
20260502181054 65 293 5.0 9.0 0.00 0.00 0.00 30 1025.8
20260502180554 65 266 4.0 9.0 0.00 0.00 0.00 31 1025.8
20260502164039 62 222 6.0 12.0 0.00 0.00 0.00 43 1026.6
20260502163539 61 254 6.0 12.0 0.00 0.00 0.00 42 1026.7
20260502163039 61 243 5.0 12.0 0.00 0.00 0.00 43 1026.7
20260502162540 61 278 6.0 12.0 0.00 0.00 0.00 44 1026.8
20260502162037 60 352 6.0 12.0 0.00 0.00 0.00 46 1026.8
20260502161537 60 262 6.0 12.0 0.00 0.00 0.00 45 1026.8
20260502161041 60 243 6.0 11.0 0.00 0.00 0.00 47 1026.8
20260502161037 60 229 6.0 11.0 0.00 0.00 0.00 46 1026.9
20260502152032 57 290 7.0 12.0 0.00 0.00 0.00 52 1026.8
20260502151534 57 297 7.0 12.0 0.00 0.00 0.00 54 1026.8
20260502151304 56 354 8.0 13.0 0.00 0.00 0.00 55 1026.8
20260502150533 56 304 7.0 13.0 0.00 0.00 0.00 56 1026.8
20260502130502 43 250 6.0 10.0 0.00 0.00 0.00 81 1026.5
20260502130233 43 262 5.0 9.0 0.00 0.00 0.00 82 1026.4
20260502123458 40 262 3.0 8.0 0.00 0.00 0.00 85 1025.9
20260502122957 40 251 4.0 8.0 0.00 0.00 0.00 85 1025.8
20260502122457 40 263 3.0 6.0 0.00 0.00 0.00 85 1025.8
20260502121955 40 252 2.0 5.0 0.00 0.00 0.00 85 1025.8
20260502121455 39 274 1.0 5.0 0.00 0.00 0.00 85 1025.9
20260502120955 39 258 1.0 5.0 0.00 0.00 0.00 85 1025.7
20260502120453 39 266 2.0 5.0 0.00 0.00 0.00 85 1025.7
20260502115453 39 277 3.0 5.0 0.00 0.00 0.00 85 1025.7
20260502114953 38 259 3.0 5.0 0.00 0.00 0.00 85 1025.6
20260502114451 39 240 3.0 6.0 0.00 0.00 0.00 84 1025.6
20260502113951 39 237 3.0 6.0 0.00 0.00 0.00 84 1025.6
20260502113450 39 250 3.0 6.0 0.00 0.00 0.00 84 1025.7
20260502112951 39 248 2.0 6.0 0.00 0.00 0.00 84 1025.8
20260502112451 40 246 2.0 5.0 0.00 0.00 0.00 84 1025.8
20260502112221 40 244 2.0 6.0 0.00 0.00 0.00 84 1025.8
20260502111447 40 205 3.0 6.0 0.00 0.00 0.00 85 1025.8
20260502110947 40 247 3.0 6.0 0.00 0.00 0.00 85 1025.8
20260502110444 40 257 4.0 7.0 0.00 0.00 0.00 85 1025.7
20260502105946 40 246 4.0 7.0 0.00 0.00 0.00 85 1025.7
20260502105443 41 279 4.0 6.0 0.00 0.00 0.00 85 1025.7
20260502104943 41 281 4.0 7.0 0.00 0.00 0.00 85 1025.6
20260502104443 41 271 4.0 8.0 0.00 0.00 0.00 85 1025.6
20260502104212 41 279 3.0 8.0 0.00 0.00 0.00 85 1025.7
20260502103440 41 265 3.0 5.0 0.00 0.00 0.00 85 1025.7
20260502102941 41 276 3.0 6.0 0.00 0.00 0.00 85 1025.7
20260502102440 41 286 3.0 6.0 0.00 0.00 0.00 85 1025.7
20260502101938 40 251 2.0 4.0 0.00 0.00 0.00 84 1025.6
20260502101437 41 253 3.0 6.0 0.00 0.00 0.00 84 1025.5
20260502100936 41 277 4.0 7.0 0.00 0.00 0.00 84 1025.5
20260502100707 41 266 4.0 7.0 0.00 0.00 0.00 84 1025.5
20260502091430 41 262 4.0 8.0 0.00 0.00 0.00 84 1025.1
20260502090928 41 251 4.0 6.0 0.00 0.00 0.00 83 1025.2
20260502090429 41 269 4.0 7.0 0.00 0.00 0.00 83 1025.3
20260502071406 42 273 2.0 5.0 0.00 0.00 0.00 79 1025.3
20260502071136 42 275 2.0 4.0 0.00 0.00 0.00 79 1025.3
20260502070405 42 267 2.0 4.0 0.00 0.00 0.00 79 1025.4
20260502070135 42 274 1.0 3.0 0.00 0.00 0.00 79 1025.4
20260502065404 43 266 1.0 2.0 0.00 0.00 0.00 79 1025.3
20260502065137 43 290 1.0 3.0 0.00 0.00 0.00 79 1025.3
20260502064400 43 274 2.0 5.0 0.00 0.00 0.00 79 1025.2
20260502063901 43 269 2.0 5.0 0.00 0.00 0.00 79 1025.2
20260502063400 43 261 2.0 4.0 0.00 0.00 0.00 79 1025.2
20260502062856 43 263 2.0 4.0 0.00 0.00 0.00 80 1025.2
20260502062357 43 266 1.0 4.0 0.00 0.00 0.00 80 1025.1
20260502061901 42 283 1.0 2.0 0.00 0.00 0.00 79 1025.1
20260502061856 42 274 1.0 2.0 0.00 0.00 0.00 79 1025.2
20260502060854 42 284 1.0 2.0 0.00 0.00 0.00 79 1025.1
20260502060354 42 274 1.0 3.0 0.00 0.00 0.00 79 1025.1
20260502055854 42 288 1.0 3.0 0.00 0.00 0.00 79 1025.0
20260502055625 42 301 1.0 2.0 0.00 0.00 0.00 79 1025.0
20260502054852 42 269 1.0 3.0 0.00 0.00 0.00 78 1025.0
20260502054342 42 278 1.0 3.0 0.00 0.00 0.00 78 1025.0
20260502053842 42 297 1.0 3.0 0.00 0.00 0.00 78 1025.0
20260502053342 42 276 1.0 4.0 0.00 0.00 0.00 78 1025.0
20260502052842 43 269 1.0 4.0 0.00 0.00 0.00 77 1024.9
20260502052343 43 309 2.0 5.0 0.00 0.00 0.00 77 1024.9
20260502051836 43 290 2.0 5.0 0.00 0.00 0.00 77 1025.0
20260502051712 44 274 1.0 5.0 0.00 0.00 0.00 76 1024.9
20260502051605 44 266 2.0 5.0 0.00 0.00 0.00 77 1025.0
20260502050329 45 316 1.0 4.0 0.00 0.00 0.00 75 1024.9
20260502045829 45 295 2.0 4.0 0.00 0.00 0.00 76 1024.8
20260502045329 45 263 2.0 4.0 0.00 0.00 0.00 76 1024.7
20260502044824 45 270 1.0 3.0 0.00 0.00 0.00 76 1024.7
20260502044323 45 272 0.0 2.0 0.00 0.00 0.00 76 1024.6
20260502044056 45 298 0.0 0.0 0.00 0.00 0.00 74 1024.6
20260502043536 46 301 0.0 0.0 0.00 0.00 0.00 74 1024.6
20260502043028 46 294 0.0 3.0 0.00 0.00 0.00 74 1024.5
20260502042256 46 285 1.0 3.0 0.00 0.00 0.00 75 1024.4
20260502042016 46 257 0.0 2.0 0.00 0.00 0.00 75 1024.5
20260502041245 46 256 1.0 3.0 0.00 0.00 0.00 74 1024.4
20260502040713 46 265 1.0 3.0 0.00 0.00 0.00 75 1024.4
20260502040212 46 272 1.0 3.0 0.00 0.00 0.00 74 1024.4
20260502035712 46 290 1.0 3.0 0.00 0.00 0.00 74 1024.3
20260502035213 46 298 0.0 2.0 0.00 0.00 0.00 74 1024.2
20260502034943 46 297 0.0 2.0 0.00 0.00 0.00 74 1024.1
20260502034212 46 297 0.0 2.0 0.00 0.00 0.00 74 1024.1
20260502033658 46 312 0.0 1.0 0.00 0.00 0.00 73 1024.1
20260502033159 46 300 0.0 1.0 0.00 0.00 0.00 73 1024.2
20260502032654 46 302 0.0 2.0 0.00 0.00 0.00 72 1024.0
20260502032157 47 302 1.0 2.0 0.00 0.00 0.00 72 1024.0
20260502031653 47 305 1.0 2.0 0.00 0.00 0.00 72 1024.0
20260502031136 47 303 1.0 3.0 0.00 0.00 0.00 71 1024.1
20260502030638 47 338 2.0 3.0 0.00 0.00 0.00 71 1024.0
20260502030134 47 345 2.0 3.0 0.00 0.00 0.00 71 1023.9
20260502025635 47 344 1.0 3.0 0.00 0.00 0.00 71 1023.8
20260502025134 47 351 2.0 3.0 0.00 0.00 0.00 71 1023.6
20260502024635 47 354 2.0 3.0 0.00 0.00 0.00 71 1023.6
20260502024136 48 359 2.0 3.0 0.00 0.00 0.00 71 1023.6
20260502023620 48 359 2.0 3.0 0.00 0.00 0.00 71 1023.5
20260502023120 48 354 2.0 3.0 0.00 0.00 0.00 70 1023.5
20260502022851 48 353 2.0 3.0 0.00 0.00 0.00 69 1023.5
20260502022118 48 359 2.0 3.0 0.00 0.00 0.00 69 1023.4
20260502021618 49 353 2.0 3.0 0.00 0.00 0.00 68 1023.3
20260502021349 49 353 2.0 3.0 0.00 0.00 0.00 68 1023.2
20260502020617 49 345 2.0 3.0 0.00 0.00 0.00 67 1023.1
20260502020116 50 348 2.0 3.0 0.00 0.00 0.00 67 1023.1
20260502015615 50 354 2.0 3.0 0.00 0.00 0.00 66 1023.0
20260502015107 51 358 2.0 3.0 0.00 0.00 0.00 66 1022.9
20260502014604 51 359 2.0 4.0 0.00 0.00 0.00 65 1022.7
20260502014104 51 359 2.0 4.0 0.00 0.00 0.00 65 1022.6
20260502013605 51 354 3.0 4.0 0.00 0.00 0.00 64 1022.6
20260502013329 52 359 3.0 5.0 0.00 0.00 0.00 63 1022.5
20260502012558 52 356 2.0 5.0 0.00 0.00 0.00 62 1022.5
20260502012058 53 359 3.0 5.0 0.00 0.00 0.00 61 1022.3
20260502011558 53 1 3.0 5.0 0.00 0.00 0.00 61 1022.3
20260502011056 53 0 3.0 5.0 0.00 0.00 0.00 61 1022.3
20260502010823 53 14 4.0 7.0 0.00 0.00 0.00 61 1022.2
20260502010042 53 359 4.0 7.0 0.00 0.00 0.00 62 1022.0
20260502005522 53 0 4.0 6.0 0.00 0.00 0.00 61 1022.0
20260502005019 53 359 5.0 7.0 0.00 0.00 0.00 60 1022.0
20260502004747 53 3 5.0 8.0 0.00 0.00 0.00 60 1022.0
20260502004245 54 13 4.0 8.0 0.00 0.00 0.00 59 1021.9
20260502003514 54 4 3.0 6.0 0.00 0.00 0.00 59 1021.7
20260502003014 54 24 3.0 6.0 0.00 0.00 0.00 59 1021.7
20260502002517 54 30 3.0 6.0 0.00 0.00 0.00 59 1021.7
20260502002243 54 72 2.0 6.0 0.00 0.00 0.00 59 1021.7
20260502001512 54 1 1.0 6.0 0.00 0.00 0.00 59 1021.6
20260502000952 54 94 1.0 4.0 0.00 0.00 0.00 60 1021.6
20260502000454 54 45 2.0 5.0 0.00 0.00 0.00 60 1021.6
20260501235952 54 107 3.0 7.0 0.00 0.00 0.00 61 1021.6
20260501235440 54 28 3.0 7.0 0.00 0.00 0.00 62 1021.6
20260501235212 53 43 4.0 6.0 0.00 0.00 0.00 63 1021.6
20260501234440 53 345 4.0 8.0 0.00 0.00 0.00 64 1021.5
20260501233938 53 359 4.0 9.0 0.00 0.00 0.00 65 1021.5
20260501233439 53 29 5.0 10.0 0.00 0.00 0.00 66 1021.5
20260501232936 53 10 6.0 11.0 0.00 0.00 0.00 68 1021.3
20260501232436 52 359 5.0 11.0 0.00 0.00 0.00 68 1021.4
20260501231935 52 23 5.0 10.0 0.00 0.00 0.00 68 1021.4
20260501231429 52 11 6.0 10.0 0.00 0.00 0.00 70 1021.6
20260501231200 52 1 5.0 9.0 0.00 0.00 0.00 69 1021.5
20260501231033 53 4 4.0 9.0 0.00 0.00 0.00 70 1021.5
20260501225928 52 1 6.0 9.0 0.00 0.00 0.00 70 1021.4
20260501225429 52 25 6.0 10.0 0.00 0.00 0.00 71 1021.3
20260501224927 52 4 6.0 10.0 0.00 0.00 0.00 71 1021.4
20260501224425 52 359 7.0 10.0 0.00 0.00 0.00 69 1021.4
20260501224157 52 0 7.0 10.0 0.00 0.00 0.00 71 1021.5
20260501223426 52 352 7.0 10.0 0.00 0.00 0.00 72 1021.4
20260501222924 52 13 8.0 12.0 0.00 0.00 0.00 74 1021.5
20260501222424 51 342 8.0 12.0 0.00 0.00 0.00 74 1021.5
20260501221924 52 359 7.0 12.0 0.00 0.00 0.00 76 1021.4
20260501221424 51 347 8.0 12.0 0.00 0.00 0.00 77 1021.4
20260501220923 51 4 9.0 14.0 0.00 0.00 0.00 77 1021.3
20260501220419 51 357 8.0 14.0 0.00 0.00 0.00 78 1021.5
20260501215921 51 1 9.0 13.0 0.00 0.00 0.00 78 1021.5
20260501215419 51 1 9.0 13.0 0.00 0.00 0.00 78 1021.5
20260501215151 51 1 8.0 12.0 0.00 0.00 0.00 77 1021.6
20260501214419 51 354 8.0 12.0 0.00 0.00 0.00 77 1021.5
20260501213920 51 11 7.0 10.0 0.00 0.00 0.00 74 1021.6
20260501213420 51 6 6.0 11.0 0.00 0.00 0.00 74 1021.5
20260501213148 51 37 6.0 11.0 0.00 0.00 0.00 75 1021.6
20260501212420 51 4 6.0 10.0 0.00 0.00 0.00 74 1021.6
20260501211913 51 27 7.0 10.0 0.00 0.00 0.00 75 1021.7
20260501211414 51 18 7.0 11.0 0.00 0.00 0.00 76 1021.8
20260501210914 50 11 7.0 11.0 0.00 0.00 0.00 76 1021.8
20260501210413 51 20 8.0 11.0 0.00 0.00 0.00 77 1021.8
20260501205914 51 20 8.0 11.0 0.00 0.00 0.00 77 1021.8
20260501205411 50 17 7.0 13.0 0.00 0.00 0.00 77 1021.8
20260501204913 51 18 7.0 13.0 0.00 0.00 0.00 78 1021.9
20260501204412 51 1 8.0 11.0 0.00 0.00 0.00 79 1022.0
20260501203904 50 38 9.0 13.0 0.00 0.00 0.00 78 1021.9
20260501203401 50 15 10.0 13.0 0.00 0.00 0.00 77 1022.2
20260501202858 50 37 9.0 13.0 0.00 0.00 0.00 78 1022.2
20260501202358 50 359 9.0 13.0 0.00 0.00 0.00 79 1022.1
20260501202129 50 11 10.0 14.0 0.00 0.00 0.00 78 1022.1
20260501201356 50 30 10.0 14.0 0.00 0.00 0.00 76 1022.1
20260501200854 50 0 9.0 15.0 0.00 0.00 0.00 75 1022.0
20260501200625 51 38 7.0 15.0 0.00 0.00 0.00 71 1022.1
20260501195854 51 23 6.0 11.0 0.00 0.00 0.00 67 1022.0
20260501195353 51 55 7.0 13.0 0.00 0.00 0.00 67 1022.2
20260501194854 51 59 8.0 15.0 0.00 0.00 0.00 68 1022.0
20260501194351 51 64 9.0 15.0 0.00 0.00 0.00 66 1021.9
20260501194123 51 18 10.0 15.0 0.00 0.00 0.00 65 1021.9